DW2849 Weather Reports


Display with metric or nautical units.
time (UTC)temp
F
wind
direction
speed
MPH
gust
MPH
rain 1hr
in
rain 24hr
in
rain mn
in
humidity
%
barometer
mb
20260502192649 51 222 2.0 3.0 0.00 0.00 0.00 85 1012.7
20260502191949 51 214 2.0 4.0 0.00 0.00 0.00 85 1012.7
20260502191249 51 240 2.0 6.0 0.00 0.00 0.00 85 1012.8
20260502190548 52 245 2.0 6.0 0.00 0.00 0.00 85 1012.8
20260502185848 52 245 2.0 3.0 0.00 0.00 0.00 85 1012.8
20260502185149 52 228 1.0 2.0 0.00 0.00 0.00 85 1012.8
20260502184257 52 180 1.0 2.0 0.00 0.00 0.00 85 1012.8
20260502183557 52 180 1.0 3.0 0.00 0.00 0.00 85 1012.6
20260502182857 52 212 1.0 3.0 0.00 0.00 0.00 85 1012.7
20260502182157 52 169 1.0 2.0 0.00 0.00 0.00 85 1012.6
20260502181457 52 228 0.0 3.0 0.00 0.00 0.00 86 1012.5
20260502180606 51 11 0.0 2.0 0.00 0.00 0.00 86 1012.5
20260502163824 50 11 0.0 1.0 0.00 0.00 0.00 86 1012.3
20260502163123 50 0 0.0 2.0 0.00 0.00 0.00 87 1012.2
20260502162423 50 315 1.0 2.0 0.00 0.00 0.00 86 1012.2
20260502161723 50 259 1.0 2.0 0.00 0.00 0.00 86 1012.2
20260502160832 49 290 0.0 0.0 0.00 0.00 0.00 86 1012.2
20260502160132 49 98 0.0 2.0 0.00 0.00 0.00 87 1012.3
20260502151740 49 56 0.0 0.0 0.00 0.00 0.00 87 1011.8
20260502150849 49 68 0.0 1.0 0.00 0.00 0.00 87 1011.7
20260502150149 49 45 0.0 0.0 0.00 0.00 0.00 87 1011.6
20260502130415 49 45 2.0 2.0 0.00 0.00 0.00 86 1010.8
20260502123615 49 90 1.0 2.0 0.00 0.00 0.00 86 1010.9
20260502122915 49 45 0.0 2.0 0.00 0.00 0.00 86 1010.9
20260502122024 49 262 1.0 2.0 0.00 0.00 0.00 86 1011.1
20260502121324 49 135 1.0 2.0 0.00 0.00 0.00 86 1010.9
20260502120623 49 225 0.0 2.0 0.00 0.00 0.00 86 1011.1
20260502115923 49 155 1.0 2.0 0.00 0.00 0.00 86 1010.9
20260502115032 49 45 1.0 2.0 0.00 0.00 0.00 86 1010.6
20260502114333 49 45 1.0 2.0 0.00 0.00 0.00 86 1010.8
20260502113632 49 90 1.0 3.0 0.00 0.00 0.00 86 1011.1
20260502112932 49 248 0.0 1.0 0.00 0.00 0.00 86 1011.2
20260502112232 49 142 0.0 2.0 0.00 0.00 0.00 86 1011.1
20260502111532 49 80 1.0 2.0 0.00 0.00 0.00 86 1010.9
20260502110832 49 112 0.0 2.0 0.00 0.00 0.00 86 1010.9
20260502105940 49 40 1.0 2.0 0.00 0.00 0.00 86 1010.8
20260502105048 49 45 1.0 2.0 0.00 0.00 0.00 86 1010.8
20260502104348 49 45 1.0 2.0 0.00 0.00 0.00 86 1010.8
20260502103648 49 45 0.0 1.0 0.00 0.00 0.00 86 1011.0
20260502102950 49 45 0.0 2.0 0.00 0.00 0.00 86 1011.0
20260502102248 49 45 1.0 2.0 0.00 0.00 0.00 86 1011.0
20260502101548 49 45 1.0 2.0 0.00 0.00 0.00 86 1011.0
20260502100848 49 30 1.0 3.0 0.00 0.00 0.00 86 1011.1
20260502100148 49 32 2.0 3.0 0.00 0.00 0.00 86 1010.9
20260502090912 49 45 2.0 3.0 0.00 0.00 0.00 86 1011.4
20260502090206 49 45 2.0 3.0 0.00 0.00 0.00 86 1011.4
20260502071130 49 40 3.0 4.0 0.00 0.00 0.00 85 1011.6
20260502070430 49 45 3.0 4.0 0.00 0.00 0.00 85 1011.5
20260502065538 49 45 3.0 4.0 0.00 0.00 0.00 85 1011.6
20260502064838 49 45 3.0 4.0 0.00 0.00 0.00 85 1011.6
20260502064138 48 42 3.0 4.0 0.00 0.00 0.00 85 1011.6
20260502063438 48 35 3.0 4.0 0.00 0.00 0.00 85 1011.6
20260502062738 48 40 3.0 4.0 0.00 0.00 0.00 85 1011.6
20260502062038 48 25 3.0 4.0 0.00 0.00 0.00 85 1011.7
20260502061338 48 45 3.0 4.0 0.00 0.00 0.00 85 1011.7
20260502060446 48 45 3.0 4.0 0.00 0.00 0.00 85 1011.7
20260502055746 49 45 3.0 3.0 0.00 0.00 0.00 85 1011.7
20260502055046 49 42 2.0 3.0 0.00 0.00 0.00 84 1011.9
20260502054346 50 30 3.0 3.0 0.00 0.00 0.00 84 1011.9
20260502053455 50 39 1.0 2.0 0.00 0.00 0.00 84 1011.9
20260502052754 50 45 1.0 2.0 0.00 0.00 0.00 84 1011.8
20260502051903 51 45 2.0 3.0 0.00 0.00 0.00 84 1011.8
20260502051203 51 90 0.0 1.0 0.00 0.00 0.00 84 1012.0
20260502050503 51 22 0.0 1.0 0.00 0.00 0.00 83 1011.9
20260502045804 52 0 0.0 1.0 0.00 0.00 0.00 83 1012.0
20260502045103 51 0 1.0 1.0 0.00 0.00 0.00 84 1011.9
20260502044403 52 180 0.0 0.0 0.00 0.00 0.00 84 1012.0
20260502043512 53 180 0.0 2.0 0.00 0.00 0.00 83 1012.0
20260502042812 54 180 1.0 3.0 0.00 0.00 0.00 81 1011.9
20260502042113 54 270 2.0 3.0 0.00 0.00 0.00 80 1011.8
20260502041412 53 275 0.0 2.0 0.00 0.00 0.00 82 1011.8
20260502040712 52 270 0.0 2.0 0.00 0.00 0.00 83 1011.7
20260502040012 52 225 1.0 2.0 0.00 0.00 0.00 83 1011.7
20260502035312 52 260 1.0 2.0 0.00 0.00 0.00 83 1011.7
20260502034424 52 208 1.0 2.0 0.00 0.00 0.00 83 1011.6
20260502033720 53 180 1.0 2.0 0.00 0.00 0.00 83 1011.5
20260502033020 53 135 0.0 2.0 0.00 0.00 0.00 83 1011.4
20260502032320 53 180 1.0 2.0 0.00 0.00 0.00 83 1011.4
20260502031620 54 180 2.0 2.0 0.00 0.00 0.00 82 1011.4
20260502030921 54 202 1.0 1.0 0.00 0.00 0.00 82 1011.3
20260502030029 55 202 1.0 1.0 0.00 0.00 0.00 81 1011.2
20260502025329 55 180 0.0 2.0 0.00 0.00 0.00 81 1011.2
20260502024437 56 197 1.0 2.0 0.00 0.00 0.00 80 1011.2
20260502023738 57 180 1.0 2.0 0.00 0.00 0.00 80 1011.2
20260502023038 58 220 1.0 2.0 0.00 0.00 0.00 79 1011.2
20260502022337 58 259 1.0 3.0 0.00 0.00 0.00 78 1011.2
20260502021446 58 232 2.0 6.0 0.00 0.00 0.00 79 1011.3
20260502020746 58 215 2.0 4.0 0.00 0.00 0.00 78 1011.3
20260502020046 59 212 2.0 2.0 0.00 0.00 0.00 77 1011.4
20260502015346 60 191 1.0 2.0 0.00 0.00 0.00 77 1011.4
20260502014646 60 208 1.0 2.0 0.00 0.00 0.00 76 1011.4
20260502013946 61 208 1.0 2.0 0.00 0.00 0.00 76 1011.5
20260502013055 61 152 1.0 2.0 0.00 0.00 0.00 75 1011.5
20260502012354 62 120 1.0 2.0 0.00 0.00 0.00 74 1011.5
20260502011655 63 180 1.0 4.0 0.00 0.00 0.00 74 1011.5
20260502010954 63 232 2.0 4.0 0.00 0.00 0.00 73 1011.5
20260502010254 62 245 3.0 5.0 0.00 0.00 0.00 73 1011.6
20260502005555 62 232 2.0 6.0 0.00 0.00 0.00 73 1011.6
20260502004703 63 259 1.0 4.0 0.00 0.00 0.00 73 1011.7
20260502004004 63 214 1.0 4.0 0.00 0.00 0.00 73 1011.8
20260502003112 63 248 3.0 5.0 0.00 0.00 0.00 72 1011.9
20260502002412 64 225 3.0 5.0 0.00 0.00 0.00 72 1011.9
20260502001712 64 259 3.0 5.0 0.00 0.00 0.00 71 1011.9
20260502001012 0 217 2.0 6.0 0.00 0.00 0.00 1011.9
20260502000312 64 208 3.0 6.0 0.00 0.00 0.00 72 1011.9
20260501235612 64 257 3.0 5.0 0.00 0.00 0.00 73 1011.9
20260501234912 65 180 2.0 3.0 0.00 0.00 0.00 72 1011.9
20260501234212 65 191 2.0 6.0 0.00 0.00 0.00 72 1012.0
20260501233321 65 172 2.0 3.0 0.00 0.00 0.00 71 1012.1
20260501232622 65 253 2.0 3.0 0.00 0.00 0.00 71 1012.1
20260501231921 65 188 1.0 3.0 0.00 0.00 0.00 71 1012.2
20260501231029 65 183 2.0 5.0 0.00 0.00 0.00 71 1012.4
20260501230329 65 188 3.0 6.0 0.00 0.00 0.00 70 1012.4
20260501225629 65 225 4.0 5.0 0.00 0.00 0.00 70 1012.5
20260501224931 65 248 3.0 6.0 0.00 0.00 0.00 70 1012.6
20260501224038 65 284 3.0 5.0 0.00 0.00 0.00 71 1012.8
20260501223337 66 264 2.0 4.0 0.00 0.00 0.00 70 1012.9
20260501222637 66 238 3.0 6.0 0.00 0.00 0.00 71 1013.1
20260501221938 66 273 2.0 4.0 0.00 0.00 0.00 71 1013.1
20260501221238 66 205 3.0 5.0 0.00 0.00 0.00 71 1013.2
20260501220538 65 256 3.0 4.0 0.00 0.00 0.00 70 1013.3
20260501215838 65 219 3.0 5.0 0.00 0.00 0.00 72 1013.3
20260501215138 64 188 2.0 3.0 0.00 0.00 0.00 73 1013.3
20260501214246 64 169 2.0 3.0 0.00 0.00 0.00 73 1013.5
20260501213546 65 169 2.0 3.0 0.00 0.00 0.00 73 1013.5
20260501212846 66 172 2.0 3.0 0.00 0.00 0.00 72 1013.6
20260501212147 66 225 2.0 4.0 0.00 0.00 0.00 72 1013.5
20260501211255 66 193 2.0 3.0 0.00 0.00 0.00 72 1013.6
20260501210555 66 202 1.0 3.0 0.00 0.00 0.00 72 1013.6
20260501205855 65 248 1.0 3.0 0.00 0.00 0.00 72 1013.6
20260501205155 65 169 1.0 3.0 0.00 0.00 0.00 73 1013.7
20260501204455 64 151 2.0 2.0 0.00 0.00 0.00 73 1013.7
20260501203755 64 188 1.0 2.0 0.00 0.00 0.00 74 1013.7
20260501202904 64 169 1.0 3.0 0.00 0.00 0.00 74 1013.8
20260501202204 63 180 1.0 3.0 0.00 0.00 0.00 75 1013.8
20260501201504 63 166 2.0 3.0 0.00 0.00 0.00 75 1013.9
20260501200612 62 185 2.0 2.0 0.00 0.00 0.00 75 1013.9
20260501195913 61 262 1.0 3.0 0.00 0.00 0.00 76 1013.9
20260501195212 61 186 2.0 3.0 0.00 0.00 0.00 75 1014.0
20260501194513 60 165 2.0 2.0 0.00 0.00 0.00 76 1014.0
20260501193621 60 158 2.0 3.0 0.00 0.00 0.00 77 1014.1